Location: *
(43.4667°N, 11.6833°E)
Time: 15:10:51
(UTC+00:00)

CZ-2D R/B - Pass Details

Date: 19 July 2019
Orbit: 792 x 844 km, 98.6° (Epoch: 22 August)

Event Time Altitude Azimuth Distance (km) Brightness Sun altitude
Rises 23:39:08 0° 31° (NNE) 3,389 6.4 -25.6°
Reaches altitude 10° 23:42:25 10° 51° (NE) 2,457 5.2 -25.6°
Maximum altitude 23:45:49 17° 90° (E) 2,027 4.2 -25.5°
Enters shadow 23:47:17 15° 109° (ESE) 2,115 4.1 -25.5°
